This is the latest recevied weather packets stored in our database for station/object KG5CK-1. If no packets are shown the sender has not sent any weather packets the latest 10 day(s).
| Time | Temp. | Humidity | Pressure | Rain* | Wind** | Luminosity | Snow |
|---|---|---|---|---|---|---|---|
| 1777233783 | 27.78° C | 77% | 1002.9 hPa | 0 mm | 1.79 m/s, 103° | - | - |
| 1777233723 | 27.78° C | 77% | 1002.9 hPa | 0 mm | 1.79 m/s, 103° | - | - |
| 1777233663 | 27.78° C | 77% | 1002.9 hPa | 0 mm | 1.79 m/s, 103° | - | - |
| 1777233603 | 27.78° C | 78% | 1003 hPa | 0 mm | 2.24 m/s, 257° | - | - |
| 1777233543 | 27.78° C | 78% | 1003 hPa | 0 mm | 2.24 m/s, 257° | - | - |
| 1777233483 | 27.78° C | 78% | 1003 hPa | 0 mm | 2.24 m/s, 257° | - | - |
| 1777233423 | 27.78° C | 78% | 1003 hPa | 0 mm | 2.24 m/s, 257° | - | - |
| 1777233363 | 27.78° C | 78% | 1003 hPa | 0 mm | 2.24 m/s, 257° | - | - |
| 1777233303 | 27.78° C | 78% | 1003.1 hPa | 0 mm | 1.34 m/s, 152° | - | - |
| 1777233243 | 27.78° C | 78% | 1003.1 hPa | 0 mm | 1.34 m/s, 152° | - | - |
| 1777233183 | 27.78° C | 78% | 1003.1 hPa | 0 mm | 1.34 m/s, 152° | - | - |
| 1777233123 | 27.78° C | 78% | 1003.1 hPa | 0 mm | 1.34 m/s, 152° | - | - |
| 1777233063 | 27.78° C | 78% | 1003.1 hPa | 0 mm | 1.34 m/s, 152° | - | - |
| 1777233003 | 27.78° C | 78% | 1003.1 hPa | 0 mm | 2.24 m/s, 157° | - | - |
| 1777232943 | 27.78° C | 78% | 1003.1 hPa | 0 mm | 2.24 m/s, 157° | - | - |
| 1777232883 | 27.78° C | 78% | 1003.1 hPa | 0 mm | 2.24 m/s, 157° | - | - |
| 1777232823 | 27.78° C | 78% | 1003.1 hPa | 0 mm | 2.24 m/s, 157° | - | - |
| 1777232763 | 27.78° C | 78% | 1003.1 hPa | 0 mm | 2.24 m/s, 157° | - | - |
| 1777232703 | 27.78° C | 77% | 1003.1 hPa | 0 mm | 3.13 m/s, 145° | - | - |
| 1777232643 | 27.78° C | 77% | 1003.1 hPa | 0 mm | 3.13 m/s, 145° | - | - |
| 1777232583 | 27.78° C | 77% | 1003.1 hPa | 0 mm | 3.13 m/s, 145° | - | - |
| 1777232523 | 27.78° C | 77% | 1003.1 hPa | 0 mm | 3.13 m/s, 145° | - | - |
| 1777232463 | 27.78° C | 77% | 1003.1 hPa | 0 mm | 3.13 m/s, 145° | - | - |
| 1777232403 | 27.78° C | 78% | 1003.1 hPa | 0 mm | 2.68 m/s, 195° | - | - |
| 1777232343 | 27.78° C | 78% | 1003.1 hPa | 0 mm | 2.68 m/s, 195° | - | - |
* Rain latest hour (hover to see other rain measurements)
** Current wind speed in m/s (hover to see current wind gust speed)